Theta_e
341 341 343 341 341 341 340 340 341 341 344 342 343 343 345 343 343 342 343 341 336 336 335 337 339 341 341 340 341 342 342 343 344 344 345 345 342 343 342 342 341 340 338 337 336 336 336 335 335 334 333 333 331 331 331 331 330 330 330 330 330 330 330 330 330 330 329 329 328 329 328 328 328 328 327 328 328 327 327 328 331 332 331 332 332
340 341 340 340 340 342 340 340 341 341 341 339 342 341 341 341 341 341 341 342 339 339 336 337 336 339 340 342 342 342 343 342 343 342 344 345 344 341 342 342 341 340 340 338 337 336 336 335 334 334 334 332 331 332 332 332 332 331 330 330 329 329 329 329 329 329 328 328 328 328 328 328 328 328 328 327 327 327 327 330 330 330 330 330 331
342 344 342 340 340 341 341 342 341 341 342 340 341 340 343 343 344 341 340 340 340 339 337 337 337 337 340 340 342 343 342 344 342 341 341 343 342 341 343 340 340 341 341 340 338 338 337 336 335 335 334 334 333 333 333 332 331 330 330 329 330 330 329 328 328 328 328 327 327 327 327 327 327 327 327 328 327 328 328 328 328 328 328 329 330
345 345 342 342 341 341 343 343 342 342 344 343 341 340 339 339 341 341 342 341 340 341 340 338 338 338 339 339 342 342 342 343 339 340 342 343 344 341 344 341 339 341 341 340 339 338 338 336 335 335 335 334 334 334 333 332 332 332 330 330 329 327 328 328 328 328 327 327 328 328 326 327 327 327 327 326 327 327 327 327 328 327 327 328 329
344 342 342 342 343 343 343 344 344 344 344 342 341 341 341 341 343 343 341 340 340 340 340 342 341 342 344 343 343 340 340 340 341 342 343 343 344 341 341 341 340 339 340 340 340 338 338 337 336 336 336 335 335 335 333 333 333 331 330 330 330 329 329 329 329 327 327 327 327 328 328 327 327 327 326 326 326 326 326 326 327 327 326 326 326
342 345 346 345 344 342 342 339 340 341 342 342 341 342 341 341 340 340 338 339 338 339 338 339 339 341 344 344 345 346 343 339 341 343 344 342 344 342 344 342 342 338 338 340 340 339 338 336 336 336 336 336 335 335 335 334 332 332 331 330 329 329 330 328 328 327 327 327 327 327 327 327 327 326 326 326 326 325 325 325 325 326 326 326 325
345 346 346 345 343 342 340 338 340 341 340 340 340 340 340 339 337 336 338 337 338 338 338 339 339 339 341 343 341 342 344 341 343 343 344 343 343 341 339 340 340 339 340 340 340 339 339 336 335 336 336 336 336 337 337 334 333 332 331 330 329 330 329 328 328 329 327 327 327 327 327 327 326 325 325 325 325 325 325 325 324 325 326 325 325
345 346 344 343 342 342 340 340 340 340 339 340 340 338 338 338 339 339 335 335 337 337 340 339 339 338 340 341 342 342 342 339 336 341 341 341 342 341 340 341 340 339 338 341 339 339 338 337 337 336 336 336 336 336 336 335 334 333 333 332 331 330 329 329 329 329 328 328 327 327 327 326 326 326 326 325 324 324 325 325 325 325 325 325 325
342 342 344 343 343 343 342 342 341 341 340 340 339 340 340 338 339 339 338 336 336 337 338 338 337 337 338 339 341 341 340 338 334 336 338 337 339 340 341 343 343 338 343 341 339 339 339 337 336 336 336 336 336 336 335 336 336 335 334 333 333 331 331 330 330 329 328 328 328 326 327 326 325 326 326 325 325 325 324 324 324 325 325 324 324
344 344 345 344 344 344 343 344 343 342 342 342 342 343 343 341 339 339 340 339 337 338 337 338 337 337 336 337 339 338 339 339 338 337 339 338 340 339 340 343 342 342 341 341 339 340 340 338 338 338 337 336 336 336 335 335 335 335 335 335 334 333 332 332 332 330 330 330 328 327 327 326 326 326 326 325 325 324 324 325 324 324 324 324 324
346 346 346 345 344 344 344 345 344 342 342 340 340 341 341 342 340 339 340 340 339 339 338 337 336 337 336 336 338 339 339 338 339 337 336 336 340 338 341 343 342 341 340 339 339 339 339 338 339 340 339 336 338 336 335 335 336 336 335 335 335 335 334 334 333 331 331 331 329 328 328 326 326 326 326 326 326 325 325 325 324 324 324 324 324
346 346 346 345 344 343 344 344 344 343 341 339 338 338 339 338 339 337 336 336 338 338 338 336 335 336 336 337 339 339 339 339 336 337 339 337 337 338 338 340 340 340 340 340 341 341 339 339 339 336 338 335 333 333 334 334 335 335 335 335 335 335 335 335 333 333 332 332 330 329 328 327 326 326 325 326 326 325 325 325 325 324 324 324 324
344 344 344 342 344 344 343 343 342 342 340 339 339 339 340 340 337 337 336 335 336 338 337 337 332 333 336 336 337 338 338 335 333 334 337 339 336 336 338 339 339 339 340 341 341 341 339 339 339 338 337 338 335 332 332 333 333 334 335 335 335 335 335 335 335 333 333 333 331 330 329 329 328 327 327 326 327 328 326 325 324 324 324 323 323
343 343 344 345 344 342 343 342 342 341 342 341 339 339 340 339 338 336 338 335 334 335 335 336 331 330 329 330 331 334 334 334 332 333 333 335 336 336 338 338 338 339 340 339 339 339 339 340 339 338 338 338 337 338 338 337 336 333 333 333 335 335 335 335 335 334 334 333 331 330 330 330 329 328 328 328 328 328 328 327 326 325 325 324 324
344 344 344 344 344 343 343 342 343 342 341 340 339 338 338 338 338 335 333 336 335 337 337 337 329 332 333 328 324 325 329 331 332 331 335 334 336 334 334 337 338 338 338 338 337 337 337 337 336 337 338 337 338 339 338 335 334 330 332 333 335 335 335 335 335 336 334 333 333 331 330 330 330 329 329 330 329 329 329 328 327 326 326 326 325
342 342 342 342 343 343 342 342 342 342 341 339 339 338 340 340 338 336 335 332 332 334 339 338 333 332 324 325 327 324 318 322 325 330 334 331 334 333 335 336 335 335 337 336 336 336 336 336 335 336 337 337 338 338 337 338 333 330 330 334 335 334 335 335 335 335 334 333 332 332 332 332 331 330 331 331 331 331 331 329 328 327 327 327 327
343 343 341 342 343 342 341 340 340 341 342 340 339 338 338 338 339 337 336 333 331 334 337 338 334 335 329 324 323 321 321 324 326 326 332 330 333 332 332 335 335 334 333 333 335 335 335 335 336 337 337 337 336 337 338 339 339 337 336 332 332 334 334 333 333 334 334 333 333 332 332 331 332 332 332 331 331 331 331 331 330 329 329 329 328
343 343 342 342 342 342 342 340 340 340 340 339 339 340 339 337 337 338 335 336 334 332 333 335 335 336 337 334 333 323 324 327 325 316 329 332 331 330 330 334 334 333 334 333 334 334 333 332 334 335 336 335 335 336 336 336 335 335 338 334 327 328 328 330 332 334 334 333 332 333 333 332 331 330 330 330 330 330 330 330 331 331 331 331 331
343 344 343 342 344 344 343 341 339 339 338 339 338 339 338 337 338 336 334 335 335 330 331 331 333 336 337 337 338 336 333 327 322 322 317 325 328 328 330 332 332 331 331 332 332 331 331 331 332 333 335 335 334 333 333 333 329 328 326 325 324 323 322 325 330 335 334 335 334 334 333 332 330 330 330 331 331 331 331 331 331 331 331 331 331
342 343 344 342 343 342 342 342 341 340 339 339 339 340 340 340 340 338 336 336 335 332 329 330 328 330 335 334 335 336 335 333 331 326 323 320 321 326 327 329 329 328 328 328 329 329 329 331 331 331 332 333 333 332 331 332 333 333 328 323 322 321 319 319 318 319 326 330 330 330 330 330 329 328 327 327 327 327 328 329 329 329 328 327 327
338 339 339 338 339 339 341 341 339 336 335 334 339 341 341 341 339 337 336 335 335 334 331 331 331 331 332 331 331 330 331 332 331 329 324 322 320 322 321 325 326 326 327 328 328 329 329 329 329 329 330 330 329 329 328 330 329 329 323 320 321 319 319 317 314 316 317 325 326 327 327 327 327 327 325 325 325 325 326 326 326 327 326 324 324
339 338 337 337 336 336 336 335 336 334 332 332 333 336 341 341 340 338 337 335 336 335 333 330 331 330 331 330 329 328 327 327 328 326 325 327 319 319 323 322 319 320 325 327 328 328 328 328 329 329 327 325 325 323 324 326 327 326 320 318 319 319 316 314 311 311 313 320 322 322 323 322 323 322 322 322 323 323 324 325 326 326 325 323 322
336 337 337 335 336 335 334 334 335 335 332 331 333 331 334 337 341 341 339 337 336 337 336 334 333 332 331 331 330 329 326 324 324 324 324 323 322 321 322 323 320 318 321 324 326 327 327 328 328 326 322 321 318 318 320 321 318 316 316 318 318 318 317 314 312 311 314 319 320 320 320 320 319 318 318 317 318 320 322 324 324 324 324 323 322
334 334 335 335 336 335 335 335 333 334 333 333 333 331 333 334 335 337 339 340 339 337 338 336 335 333 334 334 334 331 329 327 326 326 326 325 324 321 319 320 320 320 320 323 325 325 326 328 326 321 319 317 315 315 315 316 315 315 314 313 313 312 313 313 310 309 309 317 319 319 319 318 318 318 317 316 315 316 318 320 321 321 322 322 322
332 333 334 336 335 335 334 333 333 334 334 332 333 333 333 333 334 335 336 337 338 338 336 337 336 334 333 334 332 330 330 331 330 328 328 329 326 321 322 322 318 318 320 320 320 323 324 323 321 318 316 316 314 313 312 311 311 312 311 311 310 309 309 312 311 309 305 305 309 314 317 319 318 317 315 313 313 313 314 312 311 311 314 317 318
332 332 333 334 334 334 335 334 334 334 334 334 334 334 334 330 332 333 335 337 339 339 338 339 338 337 337 334 334 332 332 333 332 331 329 328 324 323 321 320 319 317 319 319 319 317 319 319 317 317 316 317 316 315 313 310 312 314 311 310 310 309 307 307 309 309 306 305 305 307 309 311 311 312 312 312 311 309 309 309 308 308 308 311 314
331 334 334 335 335 335 334 333 332 334 334 334 333 333 333 328 329 332 331 332 336 337 337 338 337 337 337 335 334 333 333 332 333 331 329 329 326 325 321 316 316 317 317 319 318 316 314 314 315 316 317 319 317 316 314 313 312 312 312 313 310 307 307 307 309 308 307 306 305 305 306 308 310 310 310 309 309 310 310 310 309 308 308 310 311
333 334 335 335 334 333 332 331 331 332 332 331 330 329 330 328 327 330 329 329 333 335 334 336 338 338 338 337 334 332 334 333 333 331 328 329 329 328 323 321 316 314 318 316 317 313 314 311 314 316 316 317 317 316 314 312 313 313 316 314 312 310 305 305 305 306 306 306 306 305 306 307 308 309 310 311 310 309 309 309 310 309 309 310 310
333 335 335 334 334 333 330 330 330 330 330 329 328 328 328 329 329 330 330 331 330 329 330 332 338 338 338 336 334 334 333 335 332 332 332 332 330 329 325 321 321 317 314 313 314 313 313 313 310 312 317 317 315 314 315 315 314 316 317 316 315 313 308 306 306 307 306 304 304 304 305 306 309 311 310 310 310 309 308 308 310 310 311 310 309
333 334 334 334 334 331 329 328 330 329 329 328 326 326 328 327 328 329 329 330 329 329 330 331 335 338 337 336 335 332 334 334 333 334 334 332 327 324 323 324 322 317 316 313 313 316 313 314 313 311 315 315 315 317 316 315 309 314 316 315 314 312 305 305 305 305 305 305 304 304 306 307 307 309 310 310 308 309 310 308 309 309 309 309 308
331 333 333 332 332 329 328 327 328 328 329 328 326 326 326 325 325 325 328 327 326 326 330 332 333 334 335 334 333 332 334 335 335 334 332 328 324 323 322 323 322 321 318 315 312 314 315 311 312 314 314 315 315 316 314 314 313 316 317 316 311 307 307 306 305 305 305 304 304 307 310 310 308 307 309 309 308 307 308 309 309 308 307 306 306
330 331 330 330 329 328 326 325 325 326 325 326 326 325 325 324 324 322 324 324 322 325 328 331 328 331 332 331 329 331 333 333 332 330 328 326 325 321 322 322 321 322 320 317 312 311 315 313 312 313 315 316 315 314 314 313 311 311 317 314 311 308 311 311 305 304 304 304 304 306 309 310 309 309 307 307 307 307 305 306 307 305 305 304 305
331 331 330 329 327 327 324 323 323 323 324 325 326 325 324 323 323 322 322 321 320 324 327 329 327 328 326 326 327 330 332 329 327 328 325 325 324 322 322 319 320 322 319 318 314 313 317 317 314 312 314 316 314 316 314 314 315 317 314 315 313 316 317 314 310 303 302 302 302 302 302 303 305 305 301 301 304 303 302 303 304 305 304 305 302
331 330 328 328 327 325 323 321 321 321 322 324 324 324 322 322 322 322 322 320 321 323 326 324 327 326 328 325 323 328 328 326 326 323 324 322 320 319 318 318 316 319 320 317 315 314 314 316 313 314 314 316 313 316 316 316 316 316 315 316 318 319 316 316 313 310 301 303 302 301 301 302 301 302 302 301 301 303 303 303 303 302 303 300 299
330 329 328 328 326 324 322 320 320 321 321 322 323 322 321 320 320 321 322 321 322 323 323 323 322 325 326 327 327 328 327 326 326 324 324 322 321 319 319 319 317 318 318 317 315 313 313 313 315 313 314 314 316 314 316 317 317 316 315 316 317 316 317 316 313 309 301 301 301 301 301 301 301 301 301 301 301 301 301 302 301 301 300 300 299
326 329 329 327 325 323 321 319 320 321 321 321 321 320 319 319 320 320 321 322 321 322 321 321 321 323 323 325 326 328 328 326 325 323 323 323 322 321 320 321 319 318 320 320 318 316 314 312 315 313 314 313 315 316 316 317 318 317 316 316 317 316 315 314 312 309 303 301 301 301 302 301 301 301 300 301 301 301 301 301 301 301 301 300 300
326 327 327 327 325 322 321 318 319 320 320 320 320 320 321 321 320 320 320 320 321 321 322 322 324 322 323 322 323 325 327 325 326 324 323 324 321 322 320 319 319 319 319 319 318 317 316 314 314 316 316 315 317 317 316 316 317 317 317 317 315 314 315 314 311 307 302 301 301 301 301 301 301 300 300 300 300 300 299 300 300 300 300 300 300
326 325 326 325 323 320 319 318 319 320 320 320 320 320 321 322 322 322 321 321 320 320 321 321 321 323 323 322 323 323 324 324 324 325 325 325 322 322 322 320 319 320 319 318 318 318 316 315 315 315 317 314 315 317 317 317 316 315 315 316 316 314 314 313 312 309 310 309 310 306 301 301 300 300 300 300 299 299 300 300 300 299 299 299 298
324 324 324 324 323 321 319 319 319 320 320 320 321 322 322 323 324 324 324 324 323 324 323 322 322 322 322 322 323 323 322 322 322 323 325 326 324 324 323 323 321 321 320 319 317 317 317 316 316 317 316 317 317 314 315 317 317 317 316 315 313 313 315 314 313 312 312 309 305 301 304 304 303 303 300 300 300 299 300 299 299 299 299 297 297
324 322 322 323 323 322 320 320 320 322 322 321 322 323 323 324 325 325 325 325 325 325 327 326 327 326 325 323 322 322 322 322 323 323 324 323 323 324 323 324 323 321 320 320 319 317 316 317 316 315 315 315 315 317 316 316 315 315 316 316 313 312 314 316 315 313 313 312 309 307 303 303 302 300 299 300 300 299 298 299 300 300 298 298 298
325 323 322 323 322 322 321 322 322 324 323 324 325 325 326 325 326 325 325 324 325 325 326 327 327 327 327 327 326 326 333 323 310 315 316 317 325 320 323 325 325 322 321 320 318 317 316 316 315 316 314 314 315 315 314 314 313 313 316 316 315 315 314 313 313 315 313 313 312 310 308 311 309 309 308 308 306 303 302 302 301 298 297 297 297
325 324 322 323 322 322 320 321 322 325 325 328 324 310 313 326 327 327 327 327 326 327 326 326 327 327 327 328 330 320 315 314 311 304 303 304 307 320 328 326 324 323 322 321 318 318 316 314 314 314 314 314 314 316 316 316 317 318 316 316 314 314 313 312 312 312 313 313 312 310 309 309 309 309 308 309 310 311 310 308 306 302 299 298 297
325 324 324 323 323 322 321 323 324 325 326 328 302 304 304 302 324 328 327 326 327 327 327 327 326 326 327 327 330 326 321 315 318 299 300 299 300 301 300 304 311 329 324 321 321 320 316 315 316 315 314 315 315 317 317 316 317 317 316 316 315 314 311 310 308 311 313 313 312 311 310 310 308 307 308 307 307 309 308 308 298 299 298 297 297
325 325 324 323 324 323 323 324 326 326 328 304 297 299 301 300 303 330 328 327 327 327 327 327 327 327 327 328 329 331 328 327 327 323 311 299 298 298 299 301 302 299 299 322 326 321 319 316 315 315 315 315 316 317 316 317 316 317 317 316 315 313 312 311 312 310 310 313 311 309 309 311 309 307 307 307 308 308 306 301 296 297 297 297 297
324 324 324 325 324 325 325 324 324 325 328 296 297 295 297 297 297 309 328 329 328 327 328 327 327 329 329 329 329 330 328 320 322 325 326 321 299 294 297 298 298 298 298 297 297 319 327 318 318 317 316 316 316 317 318 318 320 316 316 314 315 314 314 313 312 311 309 311 309 307 305 310 309 307 306 309 310 309 307 299 298 297 297 297 298
323 323 324 324 324 324 324 324 324 325 328 299 295 294 295 295 294 303 327 328 330 329 328 328 329 330 330 329 328 329 330 328 326 325 326 325 323 320 319 320 321 312 297 298 300 298 307 324 323 320 320 321 319 322 322 321 318 316 315 314 315 314 314 313 314 312 311 309 308 308 305 306 309 307 304 307 309 308 308 303 296 297 297 297 297
323 322 323 323 325 325 325 325 325 326 323 294 295 294 295 295 293 299 327 329 329 329 328 328 325 326 330 330 330 329 329 329 327 324 326 325 324 323 323 323 324 324 322 322 321 322 322 324 326 327 324 324 325 323 322 321 320 319 318 317 316 316 314 313 311 311 309 309 309 306 302 307 310 305 305 307 307 307 308 299 297 296 297 297 297
324 324 324 324 324 325 325 325 325 325 318 293 293 294 293 294 293 320 326 327 327 326 327 328 329 329 331 331 331 329 328 329 316 306 312 326 324 323 321 323 323 322 317 300 293 295 314 326 325 325 326 320 311 324 321 319 319 319 315 316 315 313 310 307 306 306 306 308 309 305 303 304 308 305 304 306 306 305 306 307 296 298 297 297 297
323 323 323 324 325 325 324 325 325 324 322 299 292 293 294 291 301 323 325 325 325 326 327 328 329 329 330 329 329 326 325 327 311 300 301 305 323 322 322 322 322 320 316 309 296 292 292 292 292 292 293 294 295 294 295 298 311 313 313 311 309 310 307 306 306 305 305 307 307 305 304 301 306 305 303 305 305 303 304 305 305 297 297 297 296
322 323 324 323 323 323 324 324 323 325 320 299 292 292 293 292 300 319 323 324 324 325 326 328 329 328 328 318 320 325 325 329 297 297 298 309 321 322 322 321 320 318 314 310 307 300 292 292 291 291 292 292 293 293 294 295 296 306 313 309 311 309 308 305 304 305 307 306 305 305 301 302 306 304 302 303 303 304 304 305 305 303 296 296 295
322 322 323 324 323 323 322 321 314 323 319 302 292 293 293 293 303 319 321 322 323 325 326 326 328 327 328 320 310 314 318 317 292 295 296 305 320 322 322 321 319 317 314 310 306 305 306 305 304 304 303 302 307 308 303 295 297 304 314 313 311 306 304 305 304 304 301 304 306 306 300 302 303 302 302 300 299 303 305 304 303 305 305 305 304
Wind_Speed
6 6 5 5 4 3 4 4 5 5 4 4 2 3 2 2 2 2 3 2 4 5 6 6 5 5 4 5 5 5 4 4 4 5 5 6 6 9 11 10 8 7 9 8 9 8 8 8 9 8 9 9 8 7 8 9 7 7 8 9 10 10 10 10 10 10 10 10 10 11 11 11 12 12 11 12 12 12 11 11 13 13 14 13 14
7 6 6 6 6 5 5 4 4 4 4 3 2 3 3 2 0 1 2 3 1 3 4 5 6 5 5 5 4 4 4 4 5 5 5 5 8 9 11 11 8 7 7 8 8 8 8 8 8 8 8 8 8 8 7 8 9 8 8 8 8 8 9 9 9 10 9 10 10 10 10 11 11 12 13 12 12 12 12 13 13 13 13 13 13
6 6 6 6 5 5 5 5 4 4 4 4 3 3 2 2 1 1 2 2 2 3 5 5 5 5 4 5 4 4 4 3 4 4 5 4 8 6 7 10 7 7 6 6 7 8 8 8 8 7 7 7 7 7 7 7 7 8 8 8 9 8 8 8 8 9 9 9 9 10 10 10 10 11 12 12 12 13 14 13 13 13 12 13 13
6 6 6 5 5 5 5 4 4 4 3 4 5 4 3 2 1 2 0 2 4 4 2 4 4 3 4 4 4 4 4 3 4 4 4 3 9 5 6 7 5 5 8 8 7 6 8 8 7 7 7 7 7 7 7 7 7 8 8 8 7 7 7 8 8 9 9 9 9 9 8 9 10 11 11 11 11 12 12 13 14 13 11 13 13
6 6 6 5 5 5 4 4 3 3 3 4 4 4 5 5 4 3 4 4 4 4 3 3 3 3 2 3 3 3 4 4 3 4 4 3 7 8 5 6 7 6 7 8 7 6 6 7 7 6 7 7 7 7 7 7 8 8 7 8 8 8 7 8 8 7 7 8 9 9 9 9 10 10 11 11 11 11 12 12 13 14 12 12 12
6 5 5 5 5 5 4 4 3 3 4 4 4 3 3 4 4 4 4 4 4 4 3 3 3 3 3 2 1 1 2 3 4 4 1 6 4 5 6 5 4 5 3 9 7 6 5 5 6 6 6 6 7 7 6 7 7 7 7 7 7 7 8 7 7 7 6 7 8 8 9 9 10 10 10 10 10 11 11 11 11 13 13 12 11
6 5 5 5 5 5 5 4 4 3 3 3 2 2 2 4 4 4 4 3 3 3 3 3 3 3 3 2 1 1 1 1 7 5 3 4 4 4 6 3 5 2 2 3 6 6 6 6 5 6 6 5 5 6 7 7 7 7 7 7 6 7 7 6 7 7 7 6 7 8 8 8 9 9 9 10 10 10 11 10 11 11 12 12 12
6 6 5 5 4 4 4 5 6 5 4 4 3 4 3 3 3 4 4 4 4 4 3 4 4 4 3 2 1 1 2 3 3 3 4 3 2 5 4 5 6 5 4 2 4 7 6 7 4 4 4 5 4 5 7 8 7 7 7 7 6 6 6 6 7 7 7 7 6 7 8 8 8 9 9 9 9 10 10 10 10 10 10 11 11
7 7 5 5 4 4 4 6 5 4 5 5 5 4 5 5 4 4 3 4 5 5 4 4 5 4 3 2 2 0 1 4 5 1 4 4 3 4 4 4 4 6 4 4 4 5 7 8 7 6 5 5 5 5 6 8 8 7 6 6 6 6 6 6 7 6 6 7 7 7 7 7 8 8 9 9 9 8 9 9 9 10 9 9 9
6 6 5 5 5 4 4 5 5 4 4 4 3 3 4 4 4 3 4 4 4 5 5 4 5 4 3 3 2 2 2 1 4 5 2 4 3 3 4 4 4 4 5 4 4 3 4 6 6 5 3 2 4 4 4 5 6 5 5 6 6 7 7 7 7 6 6 8 8 8 7 7 6 7 8 8 8 8 8 8 8 8 8 8 8
7 6 6 5 5 5 5 6 5 4 4 4 4 4 4 4 4 3 1 1 3 4 4 5 5 5 5 4 3 3 2 3 2 6 5 4 3 2 3 4 4 4 4 6 5 4 4 4 4 4 5 7 7 6 7 6 6 6 4 4 5 6 7 7 8 6 7 8 8 7 6 6 6 7 7 7 7 7 7 7 6 6 7 7 7
7 6 6 5 5 5 5 6 5 4 5 5 5 5 5 5 4 4 4 3 3 4 4 5 5 6 6 5 4 5 4 3 6 5 4 4 3 3 3 4 4 4 5 4 4 4 3 4 7 7 4 7 8 8 9 8 5 5 3 4 3 3 4 8 9 7 7 9 8 7 6 6 6 6 7 7 7 7 6 6 5 5 5 6 6
6 6 5 5 5 5 5 5 5 5 5 5 4 5 5 4 4 4 5 5 4 5 6 6 6 6 5 5 6 5 5 4 8 5 4 2 4 4 3 4 4 4 4 4 4 4 3 3 2 3 6 8 6 8 7 7 6 2 3 3 2 3 4 5 8 7 7 8 7 6 6 6 5 5 5 6 7 7 6 5 4 4 4 4 4
5 6 5 6 5 5 5 5 5 5 5 5 5 5 6 5 5 5 5 5 4 6 6 6 5 5 6 6 5 4 4 6 7 4 3 2 2 4 3 3 4 3 4 4 4 4 3 3 3 3 2 2 4 3 6 6 7 4 1 1 2 4 4 4 6 9 7 8 7 6 5 5 4 3 3 4 5 6 5 4 3 3 3 3 2
6 6 6 6 5 5 5 5 5 5 5 6 6 6 5 6 6 5 5 4 4 4 6 5 3 5 4 6 5 6 5 4 6 7 4 3 2 2 4 5 5 4 4 4 4 4 3 3 3 3 3 3 3 3 3 5 6 4 3 4 2 2 4 5 8 9 8 7 7 5 3 4 3 4 4 4 4 3 3 2 2 2 2 1 2
8 8 6 6 6 5 5 5 5 5 4 5 6 7 6 6 6 6 5 5 4 5 4 3 3 5 7 5 5 4 5 3 4 4 4 5 4 4 5 4 5 6 4 4 4 4 3 3 4 4 3 4 3 3 4 4 4 4 4 6 2 2 5 5 8 10 8 9 9 7 5 3 4 5 4 5 4 5 5 2 1 1 1 2 1
7 7 7 6 6 5 5 5 5 5 4 5 5 5 7 6 6 6 6 4 5 4 4 2 2 4 6 2 3 5 2 7 5 4 2 4 6 4 5 5 5 4 4 5 5 4 4 4 5 4 4 3 3 3 3 2 3 4 6 8 7 3 6 4 5 9 10 9 9 7 9 9 9 7 8 7 7 7 7 6 3 1 2 3 3
7 7 6 6 6 6 5 6 6 5 4 4 4 4 5 6 6 5 5 4 4 5 4 3 2 0 3 2 2 3 4 7 6 4 5 5 4 6 7 3 5 4 4 5 5 4 4 5 5 5 4 4 5 5 5 7 7 6 5 7 10 10 8 8 10 8 9 11 11 12 12 11 9 6 4 6 8 8 7 7 9 9 7 6 3
7 7 6 7 6 6 5 5 5 5 5 4 4 5 5 4 4 5 5 5 5 5 5 6 4 3 1 3 3 3 4 5 3 7 5 4 5 5 6 6 5 4 5 5 6 6 5 5 5 5 5 5 6 7 8 10 12 11 13 12 12 12 10 9 10 11 15 16 15 16 16 16 15 16 15 15 15 15 16 15 15 15 15 16 17
7 7 6 7 6 6 6 5 5 5 5 5 5 5 5 5 4 4 1 3 3 4 4 5 5 5 3 2 2 2 3 1 1 4 5 6 6 7 7 7 7 8 7 6 7 7 5 5 6 6 6 6 6 7 8 9 10 10 9 11 14 13 14 13 12 13 14 15 14 14 14 14 15 15 15 15 14 14 14 14 14 14 15 14 15
6 6 6 6 6 6 6 5 5 5 5 5 5 5 4 5 5 5 4 4 4 2 5 4 3 4 5 4 3 3 4 2 3 3 4 5 6 6 7 7 8 7 5 5 6 6 5 6 7 7 7 7 7 8 8 8 9 9 10 13 12 15 15 14 13 13 13 13 15 15 15 14 14 14 14 14 14 13 12 12 13 14 14 14 14
6 6 6 6 6 6 6 5 4 4 4 4 4 4 4 5 5 5 5 5 4 4 3 3 3 5 5 4 4 4 3 4 5 4 2 4 6 6 7 8 7 5 4 4 6 6 6 6 6 6 6 7 7 7 8 8 8 8 9 12 12 11 13 13 13 13 13 13 14 15 14 14 14 14 13 13 13 13 13 13 12 13 13 13 13
6 6 6 5 5 4 4 4 3 2 2 3 4 4 4 4 5 6 6 6 5 4 3 5 5 5 5 4 5 4 4 5 5 5 4 5 6 7 6 5 9 7 5 4 5 7 7 6 7 6 6 7 7 8 9 10 11 10 12 9 12 13 12 13 13 12 12 13 15 15 15 14 14 13 13 13 12 12 12 13 13 12 12 13 13
6 5 5 5 4 4 3 4 3 3 2 2 2 3 3 4 4 5 5 6 4 4 5 4 4 4 5 4 1 4 2 3 5 4 4 6 6 7 8 8 8 7 5 5 6 7 8 8 7 7 7 7 8 9 9 9 9 10 12 12 13 14 14 14 14 15 14 14 13 15 16 15 15 14 14 14 13 13 13 13 14 14 14 14 14
5 6 5 6 5 5 4 4 4 3 2 2 3 1 2 3 4 4 4 5 5 5 4 4 5 4 5 4 4 4 4 2 3 5 4 4 5 7 8 7 7 8 6 6 6 6 7 8 7 7 8 8 8 8 9 9 9 9 13 11 13 14 14 14 13 12 13 13 13 13 14 15 15 15 15 14 14 14 14 13 12 11 12 14 15
6 6 6 6 5 5 4 3 3 3 3 3 3 3 3 3 4 4 4 3 3 4 3 4 4 3 4 4 4 5 3 3 4 4 6 6 6 7 8 8 9 8 7 6 6 7 6 6 6 7 7 8 8 9 9 10 9 9 12 11 11 11 12 12 10 9 10 11 11 12 12 12 12 12 12 12 12 11 11 10 11 11 12 12 13
7 6 6 6 5 5 4 4 4 4 4 4 4 4 2 1 4 3 2 2 4 2 3 4 4 4 3 3 4 3 3 4 5 5 6 5 7 8 10 12 9 8 7 6 6 6 8 7 6 7 8 8 8 8 9 10 10 9 10 10 8 10 10 10 10 10 9 9 9 9 10 10 9 9 9 8 9 10 11 11 10 10 11 11 12
6 7 6 6 5 5 4 4 4 4 4 5 4 4 3 3 3 3 2 2 3 3 3 4 3 4 4 3 4 4 3 4 5 4 5 5 6 8 9 10 11 10 8 8 7 7 8 8 7 8 8 7 8 8 12 11 9 7 9 8 8 7 9 9 9 8 8 8 8 8 8 8 8 8 8 9 9 9 9 9 9 9 10 10 11
6 5 5 5 5 4 4 5 4 4 5 4 4 4 4 3 4 3 4 4 4 4 3 3 4 4 4 4 3 4 4 4 4 5 5 5 6 6 5 6 8 9 10 10 9 9 8 8 8 8 8 9 9 9 9 9 8 5 8 8 7 7 7 7 7 7 7 7 6 6 6 6 7 7 8 8 8 8 8 8 7 8 9 10 10
6 5 5 6 5 5 4 4 5 5 5 5 5 5 4 4 5 4 4 4 3 3 3 3 4 3 4 4 3 4 5 5 5 5 5 5 6 5 5 6 5 8 8 9 9 7 8 8 7 9 9 9 8 7 8 8 2 3 9 8 7 7 7 7 6 6 6 6 6 5 5 4 5 5 6 6 6 6 5 5 5 6 8 9 9
6 6 6 7 6 6 5 5 5 5 4 4 4 4 4 5 4 5 4 3 3 3 3 3 3 4 5 4 4 4 5 5 5 5 6 6 6 5 3 3 3 4 6 8 9 8 6 7 8 8 9 10 8 8 8 8 2 2 8 7 8 10 9 7 6 6 5 5 6 5 5 5 4 4 5 5 4 4 4 4 5 5 7 7 6
6 7 7 8 7 6 5 5 5 5 5 5 5 5 4 4 4 5 4 4 4 4 4 4 4 4 5 6 5 5 6 6 6 6 6 6 4 4 4 4 4 5 7 7 8 9 7 6 7 9 10 9 8 9 9 7 5 7 8 6 9 11 7 7 8 6 6 6 6 6 6 6 6 5 5 4 4 3 3 4 5 5 5 5 5
7 8 9 9 8 7 6 5 5 5 5 6 5 5 5 5 4 5 5 5 5 5 5 5 5 6 5 6 6 6 6 7 7 6 7 7 5 3 4 4 5 5 7 8 9 9 5 6 7 8 9 9 8 9 9 9 8 6 7 8 9 8 6 6 6 7 6 6 6 6 7 6 6 6 5 4 4 3 3 4 4 4 4 4 3
7 9 9 8 7 7 6 6 5 6 7 7 6 5 5 6 5 4 4 5 5 5 4 5 6 4 4 5 6 7 7 7 7 8 7 7 6 6 5 5 6 5 4 6 8 9 9 7 8 8 8 9 8 9 9 9 8 7 8 7 7 6 6 6 6 5 5 6 7 7 7 7 6 6 6 6 6 5 4 4 5 4 4 3 4
8 8 8 8 8 7 6 6 7 7 7 7 6 6 6 6 6 5 4 5 5 5 5 5 5 5 5 5 5 6 5 6 6 6 7 7 6 6 6 4 6 5 5 6 7 8 10 8 8 9 9 9 7 9 9 8 8 8 8 7 7 5 5 5 6 6 5 6 7 8 7 7 8 7 8 8 8 8 7 7 6 5 5 4 4
8 7 8 8 8 7 7 8 8 8 8 7 7 7 7 7 7 7 6 5 5 5 5 6 6 5 5 5 5 5 5 6 6 6 6 6 5 5 6 5 6 5 4 4 6 7 8 9 9 9 9 9 8 8 8 8 8 8 7 7 6 6 5 5 6 6 6 7 8 7 7 8 8 8 8 8 8 8 8 7 7 7 6 6 6
8 7 8 8 8 8 7 9 9 8 8 8 8 8 7 6 7 6 6 5 5 4 4 5 4 5 5 4 5 5 5 6 6 5 6 6 6 5 5 5 6 6 4 5 6 7 8 8 8 8 9 9 7 8 9 8 8 8 7 6 6 6 6 5 6 7 10 10 10 9 9 8 8 8 8 8 8 8 8 8 8 8 7 5 6
7 8 8 8 7 8 8 9 9 9 9 8 8 8 8 7 6 6 5 5 5 4 4 3 4 3 3 4 4 4 5 5 5 5 4 6 5 5 5 5 5 5 6 6 5 6 7 7 8 8 9 9 9 7 9 8 8 8 7 7 6 5 6 5 5 6 6 5 5 7 8 9 8 8 8 8 8 8 7 7 7 6 5 6 5
8 8 8 8 7 7 8 8 9 9 8 8 7 7 7 7 7 6 6 5 5 4 3 4 3 2 2 3 2 2 3 2 3 4 5 5 5 6 6 6 6 5 7 7 7 7 7 7 8 8 8 9 8 8 9 9 9 8 7 7 6 6 6 6 5 4 3 4 7 8 7 8 8 7 7 7 7 7 7 7 6 5 5 5 4
8 8 9 9 7 6 7 7 7 7 7 7 7 7 7 6 6 6 6 6 6 5 5 4 4 3 2 2 2 2 3 3 2 3 4 4 4 6 6 6 7 8 8 8 7 7 8 8 8 8 8 9 9 8 8 9 9 9 8 7 8 7 6 5 4 5 5 5 5 5 6 8 7 9 10 9 9 8 8 9 8 7 5 4 3
6 7 8 9 8 6 7 6 6 6 6 5 5 5 6 5 4 5 5 6 5 6 5 5 4 3 2 2 1 1 5 7 8 7 7 5 3 6 5 6 7 8 8 8 10 9 8 8 8 8 9 9 9 10 10 10 10 9 8 7 7 7 6 5 5 4 3 4 4 5 6 5 6 7 7 7 8 10 11 9 9 10 7 4 3
6 6 7 8 8 7 8 7 6 5 4 2 6 8 9 2 4 4 4 5 5 5 5 5 4 4 3 2 2 6 4 4 4 5 5 6 8 6 4 5 8 8 8 9 10 10 9 10 10 10 10 10 10 11 10 10 10 9 8 8 8 6 6 5 4 4 3 4 3 4 3 3 3 3 4 4 4 6 2 5 4 5 5 3 3
5 5 6 7 6 6 7 7 6 5 3 3 6 3 3 7 4 3 3 3 3 4 4 4 4 5 5 4 3 5 3 2 1 1 3 4 6 8 9 10 8 4 8 10 10 10 11 10 10 10 10 10 11 11 11 10 10 10 8 8 8 7 7 7 7 6 4 4 4 4 4 4 3 5 4 3 2 1 3 3 7 6 3 1 2
4 4 5 6 5 6 5 6 6 5 4 6 6 6 3 1 3 3 4 4 5 5 5 5 4 4 4 5 4 3 5 5 4 4 3 1 2 3 3 5 7 8 7 4 6 9 11 10 10 10 10 11 11 11 10 10 9 8 8 9 8 8 8 8 7 4 5 4 4 5 5 5 3 4 5 4 2 3 0 7 7 5 3 2 3
1 3 3 3 4 4 5 5 5 5 5 6 8 7 6 4 1 4 5 5 5 5 5 6 6 5 5 5 5 5 4 5 4 6 5 4 4 1 1 3 2 4 8 8 6 5 5 11 10 10 10 10 11 10 11 10 9 10 9 9 8 8 7 7 7 4 5 4 4 4 6 5 4 4 5 4 4 4 4 9 8 8 5 5 5
3 2 3 3 2 3 4 4 4 4 4 5 5 6 7 7 5 3 6 5 5 6 7 7 7 7 7 6 6 6 5 5 6 7 6 6 5 4 5 6 6 4 4 3 7 7 6 6 8 10 11 11 9 9 9 11 11 10 10 9 8 7 6 5 3 5 5 4 4 3 5 6 6 4 4 3 3 3 6 10 11 9 7 6 5
3 3 2 2 2 2 1 0 1 3 3 4 4 5 5 5 5 4 5 5 6 6 6 6 7 11 8 6 7 7 6 6 6 6 7 7 6 6 7 7 6 5 4 2 3 4 5 4 3 2 5 1 4 7 9 9 9 7 7 7 7 5 4 6 4 4 4 4 3 4 6 2 5 4 4 3 3 4 3 14 13 13 9 7 7
3 2 2 3 3 3 2 2 2 3 3 4 3 4 5 6 5 3 4 5 7 7 8 9 10 10 7 7 7 7 7 7 6 8 8 7 8 9 9 8 6 3 2 5 5 6 4 2 2 1 2 6 8 5 6 7 7 7 6 6 5 6 6 6 5 5 5 5 3 4 5 5 3 4 4 3 3 4 3 2 14 12 11 8 9
4 3 2 2 2 2 2 2 1 3 5 3 3 4 4 4 4 3 4 5 6 8 8 8 8 7 7 6 6 6 7 8 9 12 10 8 9 10 10 9 7 5 3 3 8 9 7 11 13 14 14 14 14 14 13 10 7 7 7 6 6 6 6 6 6 5 6 6 3 2 4 5 3 3 4 3 3 4 4 4 6 10 11 14 14
4 3 2 3 3 3 2 3 4 1 6 5 3 4 3 3 4 3 3 5 5 7 7 7 7 6 5 4 4 7 8 5 11 12 12 9 10 10 10 10 8 7 4 3 4 5 9 14 14 14 13 14 14 13 12 11 10 0 7 6 6 6 6 6 6 5 5 5 4 0 4 6 1 3 4 4 6 5 5 3 0 7 15 14 16
4 3 1 2 3 3 4 3 3 4 6 5 4 5 2 3 3 4 4 4 5 5 6 6 5 6 4 4 5 6 7 3 10 10 12 11 11 11 11 11 10 9 6 7 6 6 6 8 8 10 10 10 9 8 8 10 8 4 1 1 4 5 6 5 4 3 5 6 6 1 5 3 2 2 2 4 4 1 3 2 3 3 3 5 4
Wind_Direction
140 139 128 125 110 120 130 128 137 124 116 107 110 100 83 23 36 140 144 132 173 192 195 180 180 184 186 175 174 160 164 143 132 127 115 134 136 128 137 123 112 115 121 122 123 124 120 119 114 119 116 117 121 121 124 119 116 102 96 95 91 87 87 89 90 87 82 79 78 74 73 73 72 71 72 74 68 64 68 74 70 66 65 63 62
145 146 144 143 141 138 135 125 118 113 105 80 90 129 116 111 343 27 93 110 247 240 203 172 188 182 184 178 176 172 153 161 149 149 133 153 137 134 133 128 125 124 121 123 121 121 120 119 122 122 126 132 137 138 126 117 116 109 101 97 96 93 92 94 86 83 82 80 79 78 76 74 73 73 75 76 72 69 62 70 66 69 66 66 65
154 150 140 147 144 143 142 136 134 125 120 124 126 129 138 134 143 135 123 134 165 221 207 169 181 195 176 176 174 172 172 154 154 144 161 154 127 133 127 119 123 132 118 99 117 127 129 126 127 129 131 129 131 126 117 113 110 110 107 102 101 102 100 95 92 92 90 84 81 80 76 75 74 74 73 72 74 63 54 64 65 63 67 69 64
152 144 145 145 144 143 141 145 130 133 130 127 136 148 146 134 162 91 109 183 172 176 157 170 173 165 185 157 180 178 152 170 179 148 161 165 95 110 136 118 81 90 117 124 115 123 131 135 136 138 130 132 127 126 122 114 114 115 114 109 103 100 91 88 93 88 83 84 84 80 80 75 73 73 73 73 71 64 65 65 59 57 63 69 66
155 153 152 148 135 143 139 125 125 119 112 124 137 156 167 167 148 149 179 174 172 156 154 148 139 125 105 146 191 179 149 190 139 159 156 150 97 114 150 151 129 116 102 131 129 126 136 140 148 146 143 134 127 128 132 126 125 126 125 121 117 114 108 96 85 90 93 92 89 86 81 81 77 75 72 68 69 68 65 66 66 57 54 63 64
153 152 151 137 139 138 126 130 119 134 141 155 170 181 167 154 155 175 172 179 167 153 151 133 118 128 105 76 79 64 191 178 166 113 135 74 132 135 109 126 130 92 142 123 134 123 127 153 149 152 147 138 131 134 142 134 132 132 130 125 122 115 112 117 112 103 93 86 90 90 85 81 81 77 73 74 75 73 69 65 70 64 57 58 63
155 148 146 149 147 141 147 144 145 153 155 163 172 162 159 154 167 173 174 160 150 141 137 119 115 100 91 86 88 128 216 116 36 35 84 79 85 121 107 109 98 136 95 142 122 135 134 148 161 158 154 135 137 148 146 137 132 137 137 133 124 116 120 116 107 98 95 90 87 89 91 89 84 84 86 80 76 75 76 76 71 73 64 59 59
154 156 157 159 151 150 157 151 155 162 159 158 173 171 164 154 162 182 173 170 158 149 119 114 106 101 94 91 98 218 139 94 104 115 125 110 118 74 101 129 132 141 134 120 160 133 126 126 134 140 137 134 145 147 143 141 142 140 144 140 128 126 121 112 104 108 106 104 102 98 96 92 85 79 82 85 80 75 72 70 72 71 74 67 60
161 172 163 160 155 163 152 157 164 162 165 174 182 177 170 167 172 182 190 169 152 121 122 118 112 105 109 116 105 73 80 106 151 175 146 145 118 122 105 106 108 123 110 127 133 135 134 139 153 158 153 153 159 155 147 148 150 147 141 145 142 136 132 119 114 113 105 105 110 102 97 98 99 99 93 82 80 81 83 78 73 75 75 74 72
175 164 165 164 165 159 148 152 160 162 168 172 171 176 168 167 159 190 187 205 146 140 138 130 119 119 116 108 101 105 98 108 119 134 95 90 109 124 111 104 136 126 128 136 114 123 144 141 125 103 128 161 143 144 122 128 135 141 144 153 149 150 149 139 128 128 115 107 111 106 109 108 106 103 97 94 93 84 79 82 83 77 74 74 73
176 170 164 170 169 153 157 165 162 161 160 166 164 175 170 165 169 161 207 238 108 137 137 128 127 120 113 104 111 96 109 99 99 92 129 141 124 139 134 128 133 139 150 140 153 175 161 121 106 116 92 77 81 102 131 127 118 132 157 175 172 157 162 147 136 139 118 117 119 121 110 113 109 101 100 94 89 88 86 88 87 88 86 83 78
174 169 165 173 168 160 162 167 160 165 162 167 167 169 176 163 158 165 160 127 145 127 135 132 122 115 104 100 90 94 91 113 103 117 90 131 128 132 135 140 143 141 153 153 154 132 126 124 147 136 131 94 84 73 73 67 97 131 157 188 187 154 148 156 147 149 126 129 130 131 127 119 116 116 116 112 102 100 94 89 92 91 88 84 81
172 164 175 172 180 164 165 165 162 164 165 167 166 157 156 148 155 172 160 161 155 164 144 142 142 125 123 115 103 88 89 109 93 108 120 142 164 155 136 145 139 157 157 159 142 137 132 125 90 133 156 143 118 104 101 92 63 72 150 196 219 184 187 158 155 149 138 136 135 130 131 134 125 118 117 102 94 93 98 100 101 97 93 88 84
174 173 181 189 174 167 173 166 170 169 167 153 157 157 158 154 166 168 183 164 168 170 157 165 170 162 149 130 114 104 95 95 113 111 108 159 121 138 123 120 141 139 138 144 148 139 130 134 118 91 43 36 85 125 139 150 114 55 142 336 172 140 158 179 170 154 147 139 144 134 120 124 134 139 133 103 92 86 90 118 109 94 88 84 77
181 185 187 187 178 176 174 167 177 167 164 156 157 159 170 166 174 174 165 172 166 172 177 238 183 170 162 165 155 158 142 121 91 91 133 96 48 100 110 127 136 132 134 138 136 129 128 119 107 92 73 66 69 89 84 58 44 27 354 345 53 120 137 151 170 154 134 144 144 122 126 115 144 156 150 120 98 96 89 113 112 82 56 35 40
188 185 192 179 179 182 173 170 175 176 173 168 167 170 172 177 180 170 172 165 172 165 195 195 259 188 181 226 150 175 145 117 100 92 131 144 180 122 106 105 120 129 136 127 112 114 117 110 94 81 78 81 75 66 48 56 128 139 37 19 39 143 132 135 147 152 140 129 129 106 99 145 176 165 117 93 70 49 38 94 109 99 17 11 264
188 191 185 175 181 183 176 172 177 177 178 173 175 180 171 185 181 173 182 182 162 166 175 209 227 62 286 154 171 201 130 120 131 102 35 118 93 113 83 109 103 112 119 75 66 77 86 92 90 93 89 87 80 73 80 97 141 76 92 53 43 86 100 106 126 130 128 133 141 129 101 89 81 88 87 85 72 67 59 54 51 318 319 303 301
187 186 177 171 174 177 180 173 169 177 183 179 174 173 184 190 169 175 171 203 165 163 172 193 203 73 11 68 346 314 133 150 181 115 58 62 81 81 96 66 90 90 109 126 111 95 89 80 88 95 91 84 74 76 70 55 50 62 54 63 65 66 72 86 97 109 113 100 105 109 106 99 90 89 81 74 69 69 71 66 61 61 61 64 24
178 173 171 169 165 168 169 179 168 178 171 182 182 181 180 194 159 180 189 165 189 173 179 170 171 187 188 8 19 20 98 163 166 124 122 109 88 80 102 105 98 100 86 96 100 85 86 102 105 104 108 104 102 101 94 86 73 68 56 61 67 68 65 72 95 108 99 95 89 86 88 86 76 75 78 80 77 75 76 78 77 73 69 71 76
166 172 170 168 156 163 169 180 177 175 178 187 183 184 174 169 175 175 181 181 189 207 161 184 192 160 186 189 113 87 110 303 220 189 143 140 126 89 83 77 76 62 61 75 85 88 89 103 105 103 103 109 111 98 92 87 84 79 65 56 74 74 74 74 70 67 78 87 90 92 91 86 80 75 73 71 70 73 75 75 72 70 68 66 67
171 167 170 165 159 165 172 171 179 178 185 180 181 175 177 152 165 174 180 194 200 213 172 209 219 139 173 192 192 183 164 161 159 239 176 150 135 134 114 93 77 61 77 77 83 87 92 81 87 101 108 114 110 95 91 85 86 84 69 62 63 72 72 71 70 70 73 81 88 89 87 86 84 82 78 76 72 69 72 77 79 76 71 69 69
161 164 162 164 161 158 167 164 172 178 200 167 170 169 175 167 171 172 179 187 199 207 156 183 207 178 222 167 185 183 178 149 187 166 152 145 148 158 146 145 121 70 64 86 107 112 104 111 109 111 106 98 94 96 85 84 89 90 71 61 61 62 70 71 73 77 77 81 85 85 83 82 80 79 78 78 76 73 70 69 72 77 79 77 74
155 156 160 157 152 162 163 162 164 175 197 170 185 181 173 174 173 176 180 193 182 191 197 174 212 170 205 176 195 182 186 171 169 167 171 148 149 152 144 147 119 110 70 73 114 112 115 120 130 125 107 99 95 90 85 82 81 76 65 52 67 70 67 66 61 59 69 80 83 81 81 79 78 77 75 73 72 71 69 67 67 73 79 81 78
153 151 155 154 155 153 153 150 155 178 182 199 195 184 184 180 182 184 178 185 175 186 184 192 204 176 208 187 209 314 236 199 159 157 194 149 169 148 138 127 125 105 111 114 116 125 128 135 126 114 109 103 96 92 98 97 86 85 86 63 67 68 67 64 61 60 55 54 58 75 80 79 76 72 69 66 64 63 62 62 58 56 65 72 74
154 156 151 159 156 150 156 160 151 168 179 184 185 184 187 184 177 184 171 176 174 180 184 180 188 198 178 186 180 199 207 208 146 168 153 153 152 145 130 134 122 123 128 134 131 127 131 127 123 119 115 116 113 106 101 101 98 94 97 70 67 70 71 72 71 67 68 65 62 56 60 69 73 72 69 65 61 59 61 59 52 50 52 66 69
158 159 155 164 161 151 152 139 126 136 156 161 156 166 165 170 162 153 148 133 129 161 155 155 175 190 171 175 201 180 178 142 156 167 152 164 156 143 130 121 138 132 131 137 132 132 124 116 119 117 115 102 100 106 103 105 107 88 90 94 73 66 74 76 75 73 75 74 72 69 68 67 69 68 69 71 70 67 64 57 59 58 57 55 60
164 152 152 157 146 151 139 134 131 129 134 141 142 133 134 123 113 110 128 120 129 152 126 153 163 175 177 186 166 157 151 164 168 173 152 164 149 147 148 140 137 139 140 143 149 131 127 126 124 118 107 110 115 114 117 107 112 130 123 99 90 70 75 75 75 74 75 74 70 69 69 70 73 77 76 71 68 72 70 65 58 56 55 55 54
149 151 151 157 152 141 145 133 137 139 135 133 139 126 108 108 104 105 111 129 141 150 136 150 146 150 162 153 170 139 163 151 168 155 151 151 141 155 154 154 151 148 152 152 152 129 143 132 126 121 127 122 111 105 115 126 119 162 124 110 107 90 71 74 73 74 73 72 70 68 66 62 62 67 71 74 74 73 73 72 66 63 60 56 55
144 146 151 151 152 157 146 138 145 140 133 132 128 121 127 119 108 110 113 119 136 132 132 134 131 153 149 162 158 136 145 150 153 146 137 154 151 166 170 164 162 150 158 158 156 150 154 144 142 141 134 128 128 135 144 127 141 172 114 115 111 103 80 77 70 72 72 71 70 70 68 63 60 57 64 70 72 72 72 75 70 70 72 68 61
150 155 157 153 153 158 151 149 148 147 142 140 133 126 136 122 115 115 107 117 128 131 139 136 134 146 147 169 152 147 134 158 139 146 145 158 152 160 172 165 166 173 167 151 145 164 147 158 147 146 148 140 145 145 130 128 81 254 122 120 114 103 92 71 66 63 64 62 63 70 64 55 47 44 54 61 68 63 68 79 70 79 81 73 62
159 157 161 160 159 159 159 158 158 155 152 136 137 142 136 124 125 120 118 120 111 113 114 125 142 149 151 150 148 138 146 141 141 150 146 148 144 151 145 156 171 178 169 159 153 140 158 156 146 150 151 154 157 140 135 134 119 99 125 125 118 121 131 78 61 64 57 64 57 57 86 72 57 43 40 54 64 73 67 76 88 84 79 69 52
166 163 164 161 161 163 167 165 165 163 156 152 157 140 141 128 137 128 115 132 125 121 127 137 144 148 151 151 145 144 152 152 152 147 144 144 149 137 140 142 144 170 156 150 139 142 165 151 146 154 156 160 155 146 142 138 134 260 135 130 127 161 165 119 78 64 69 69 70 62 61 67 63 60 50 44 48 49 65 79 90 91 84 68 57
162 168 164 163 164 168 165 171 168 162 156 156 153 150 142 137 128 125 135 134 126 112 124 124 126 134 136 133 137 141 154 153 147 146 152 151 149 134 133 131 138 163 173 159 140 142 138 145 155 157 159 164 165 162 150 146 154 152 151 140 161 197 146 127 111 79 67 77 81 80 75 66 59 64 53 46 54 45 67 95 95 86 86 72 55
169 167 165 162 165 167 163 163 164 158 157 151 155 152 140 136 135 140 136 128 105 104 123 129 117 112 119 122 122 132 149 151 154 157 158 162 163 152 146 143 137 150 166 148 151 154 149 157 163 159 158 189 166 175 155 162 167 166 166 165 177 185 149 153 128 98 69 87 88 86 80 76 77 70 66 67 59 64 75 94 101 90 81 68 41
169 173 164 167 167 163 158 161 158 155 152 147 149 145 137 147 147 141 136 121 122 119 123 128 133 128 133 124 132 137 148 154 165 165 158 173 179 158 141 151 136 149 160 147 154 159 159 164 163 167 172 187 190 177 167 173 171 180 176 176 182 168 151 144 124 113 91 96 92 88 86 89 82 75 76 70 68 70 73 77 76 74 72 58 45
168 174 169 174 167 164 160 160 156 155 149 149 151 146 145 141 146 144 138 135 133 129 125 128 123 133 131 142 140 152 154 160 172 165 174 177 194 166 155 144 148 158 150 149 164 152 169 164 179 177 176 181 196 185 177 175 177 192 185 178 178 171 163 153 132 122 117 108 101 98 101 95 87 87 82 80 80 79 77 73 70 65 62 54 47
166 169 173 176 173 167 166 164 157 156 155 155 147 140 136 143 136 139 142 130 127 120 107 99 112 120 133 135 150 156 161 173 173 181 178 185 189 180 191 166 170 158 166 185 172 163 167 176 173 187 168 187 194 191 184 184 180 198 189 175 189 175 160 131 108 105 124 132 123 122 111 102 102 97 95 94 94 92 88 83 81 77 70 63 64
165 172 173 176 180 169 172 166 159 160 158 154 151 146 140 138 138 132 128 136 134 132 134 147 126 125 130 130 135 162 170 182 186 188 195 189 207 205 206 212 192 168 184 184 192 174 178 172 178 178 179 185 195 195 190 196 193 195 187 185 183 165 161 172 155 156 170 156 160 137 129 123 109 105 106 107 106 108 103 98 92 86 79 77 67
169 173 175 176 182 176 171 167 164 162 157 160 152 148 147 147 141 139 140 140 138 127 142 134 133 140 171 150 148 157 189 196 198 203 203 208 215 225 221 216 230 200 198 200 197 188 195 181 181 185 180 189 194 191 199 199 200 206 194 188 187 180 186 182 175 162 154 102 59 42 57 74 119 130 129 130 126 125 128 120 109 98 90 74 66
175 176 176 177 175 183 167 175 163 159 156 166 158 160 157 148 149 151 151 157 152 152 150 143 137 144 140 163 187 186 208 203 212 206 218 222 224 232 227 225 221 220 214 215 218 206 202 199 194 188 195 186 194 201 199 196 209 210 209 205 201 186 185 189 182 180 165 159 167 155 132 137 149 139 162 159 160 157 142 137 134 117 92 73 47
180 179 179 176 172 178 166 171 160 156 166 162 164 168 160 150 157 165 165 167 164 161 165 157 156 159 166 136 209 77 38 24 17 0 5 353 246 226 218 225 223 221 221 218 212 214 219 206 203 198 195 194 197 195 197 196 206 211 207 197 214 192 184 182 190 188 190 195 196 176 171 196 197 188 196 187 158 182 187 208 132 124 94 59 35
180 179 180 175 173 175 169 165 159 159 165 160 48 26 3 3 175 182 182 186 179 169 174 167 164 176 182 191 140 66 49 31 21 9 357 333 327 331 313 215 211 216 216 218 213 210 212 209 209 202 200 200 200 197 198 198 203 211 205 194 216 189 183 189 172 180 196 236 222 216 186 175 257 239 241 235 140 208 204 198 68 53 69 37 16
168 170 177 169 171 176 173 165 158 163 167 91 82 52 68 3 330 204 197 199 198 191 194 194 184 180 197 207 191 146 161 167 161 100 348 350 334 323 316 320 326 283 222 217 217 209 206 211 211 205 209 211 208 199 201 198 199 205 208 199 215 185 200 197 210 167 200 201 224 254 211 167 246 259 239 248 174 225 246 80 108 111 95 25 332
169 170 173 173 168 174 180 172 167 169 145 105 138 147 139 139 331 278 217 214 211 215 214 215 215 213 207 202 217 198 221 224 228 176 169 89 319 297 289 306 301 313 335 308 241 215 212 217 211 213 218 219 210 204 202 196 192 190 195 197 199 193 201 217 248 215 142 183 219 234 238 162 229 265 266 252 252 250 216 106 134 130 189 232 254
155 163 152 166 180 171 186 182 173 170 147 139 150 154 144 139 179 286 234 222 225 225 233 231 233 232 222 217 214 212 199 127 225 234 224 177 135 106 276 219 262 295 312 310 319 326 277 225 228 220 219 220 214 203 199 188 179 186 184 192 192 200 213 233 240 135 148 171 224 234 251 187 193 228 248 229 217 243 176 149 153 167 197 223 249
56 83 119 163 184 193 201 195 185 182 123 118 148 146 149 153 161 226 249 249 243 242 245 247 252 239 230 236 233 220 214 196 225 237 235 222 194 196 211 223 222 183 224 266 305 300 303 289 247 236 223 222 213 198 174 173 178 183 183 192 187 199 201 226 98 122 130 180 231 256 252 217 192 231 257 244 210 208 264 143 171 173 188 229 246
90 95 106 118 91 96 107 215 194 120 71 114 133 137 134 142 138 249 240 251 246 244 250 260 268 269 251 243 248 252 239 225 225 226 232 227 220 215 221 221 226 221 204 224 244 254 250 248 284 353 64 43 196 150 157 170 178 180 194 190 178 185 132 107 140 148 169 179 200 228 252 171 165 230 245 246 236 248 259 151 172 173 190 206 243
86 103 90 106 129 130 118 125 153 131 124 159 144 130 128 133 157 225 231 238 246 245 243 235 239 244 246 243 245 244 249 240 187 184 229 246 228 228 224 217 208 182 81 50 347 313 327 270 252 194 102 66 71 114 141 158 143 119 113 116 133 141 167 195 200 178 203 158 203 245 255 256 185 241 266 267 249 259 268 250 156 170 180 209 221
122 127 128 121 115 120 120 131 191 175 115 125 101 106 114 147 218 245 243 244 243 241 242 247 244 245 243 239 239 248 243 245 160 179 205 245 234 232 225 215 202 193 165 97 48 32 55 79 86 90 90 89 85 78 69 70 117 140 152 163 173 186 200 219 206 184 197 157 175 250 277 272 221 231 276 264 284 279 269 265 157 172 176 204 222
133 146 157 132 79 36 41 53 27 334 90 77 87 107 135 188 296 283 250 247 248 251 250 240 246 241 227 142 268 252 253 245 153 185 192 206 230 233 230 220 198 195 163 129 100 68 72 77 77 81 89 93 91 82 74 74 57 11 175 197 179 195 219 226 218 196 175 165 147 139 258 256 244 265 271 287 271 226 223 199 115 181 191 210 215
111 112 90 110 124 129 63 60 25 320 99 107 117 118 146 182 247 260 268 266 261 258 264 253 237 253 235 167 200 270 297 21 161 188 192 202 224 230 229 222 214 205 174 137 129 127 117 111 105 102 98 104 106 100 79 57 46 21 300 230 155 211 223 215 223 193 200 183 125 163 273 260 256 267 288 287 280 176 178 271 246 274 289 308 255